Regional Weather Roundup
Issued by NWS Cleveland, OH

Home | Current Version | Previous Version | Graphics & Text | Print | Product List | Glossary On
Versions: 1 2 3 4 5 6 7 8 9 10 11 12 13 14 15 16 17 18 19 20 21 22 23 24 25 26 27 28 29 30 31 32 33 34 35 36 37 38 39 40 41 42 43 44 45 46 47 48 49 50
000
ASUS41 KCLE 260610
RWRCLE
OHIO REGIONAL WEATHER ROUNDUP
NATIONAL WEATHER SERVICE CLEVELAND, OH
100 AM EST SUN FEB 26 2017

NOTE: "FAIR" INDICATES FEW OR NO CLOUDS BELOW 12,000 FEET WITH NO
SIGNIFICANT WEATHER AND/OR OBSTRUCTIONS TO VISIBILITY.

OHZ001>008-015>018-024>027-034-035-043-044-260700-
   NORTHWEST OHIO

CITY           SKY/WX    TMP DP  RH WIND       PRES   REMARKS
DEFIANCE       CLOUDY    25  16  68 W6        30.03R WCI  18
FINDLAY        LGT SNOW  27  18  69 NW13      30.02R WCI  16
TOLEDO EXPRESS CLOUDY    24  16  71 W9        30.02R WCI  14
TOLEDO EXEC    CLOUDY    26  18  71 W12       30.04R WCI  16
LIMA           CLOUDY    27  18  69 W15       30.02R WCI  15
$$

OHZ009>014-019>023-028>033-038-089-260700-
   NORTHEAST OHIO

CITY           SKY/WX    TMP DP  RH WIND       PRES   REMARKS
CLE-HOPKINS    LGT SNOW  27  19  72 W15       30.02R WCI  15
CLE-LAKEFRONT  LGT SNOW  27  22  81 W23       29.99R WCI  12
CUY CO. ARPT   NOT AVBL
LORAIN-ELYRIA  FLURRIES  25  17  72 NW14      30.01R WCI  13
ASHTABULA      LGT SNOW  25  22  88 NW10      29.96R FOG     WCI  15
AKRON-CANTON   LGT SNOW  26  17  68 W10       29.98R WCI  16
WOOSTER        FLURRIES  26  16  65 W16       29.99R WCI  14
MANSFIELD      CLOUDY    25  16  68 W9        29.98R WCI  15
YOUNGSTOWN     FLURRIES  26  16  65 W10G21    29.95S WCI  16
$$

OHZ042-051>053-060>062-070>072-077>081-260700-
  SOUTHWEST OHIO

CITY           SKY/WX    TMP DP  RH WIND       PRES   REMARKS
CINC-COVINGTON CLEAR     27  17  66 SW5       30.06S WCI  22
CINC-LUNKEN    CLEAR     28  18  66 SW7       30.10S WCI  21
HAMILTON       CLEAR     27  19  72 W7        30.09R WCI  19
DAYTON         MOCLDY    27  17  66 W13       30.05R WCI  16
WRIGHT-PAT AFB CLOUDY    29  18  63 W9        30.05R WCI  21
DAYTON GENERAL CLEAR     28  18  66 W7        30.05R WCI  21
WILMINGTON     CLEAR     26  17  68 SW9       30.04S WCI  17
$$

OHZ036-037-039>041-045>050-054>059-063>069-073>076-082>088-260700-
  CENTRAL AND SOUTHEAST OHIO

CITY           SKY/WX    TMP DP  RH WIND       PRES   REMARKS
COLUMBUS       FLURRIES  32  18  56 W9        30.04R WCI  24
OSU AIRPORT    CLOUDY    29  17  61 W18       30.04R WCI  16
BOLTON FIELD   CLOUDY    30  18  62 W5        30.04S WCI  25
RICKENBACK AFB CLOUDY    30  20  65 W9        30.05R WCI  22
NEWARK         CLOUDY    30  17  58 W10G20    30.03R WCI  21
MARION         CLOUDY    28  18  66 NW9       30.02R WCI  19
LANCASTER      CLOUDY    32  21  64 W5        30.04S WCI  27
ZANESVILLE     CLOUDY    30  18  60 W8        30.03S WCI  22
NEW PHILLY     NOT AVBL
$$




USA.gov is the U.S. government's official web portal to all federal, state and local government web resources and services.